RH
25 27 28 29 29 29 28 29 31 33 35 40 42 42 40 38 36 37 40 43 44 46 49 53 56 59 62 65 65 62 59 57 58 61 62 63 63 62 61 60 60 62 66 66 64 61 56 51 50 51 52 51 51 50 48 45 41 39 39 39 38 37 34 33 33 35 34 33 32 33 32 32 33 34 32 33 33 33 34 36 37 37 37 37 36
28 29 30 32 32 32 30 29 30 30 33 38 43 45 45 45 44 41 41 44 47 47 48 50 52 56 60 64 68 70 69 66 65 67 67 68 70 70 69 67 67 67 69 70 68 64 58 53 51 52 52 51 51 51 49 47 45 42 40 38 37 37 36 34 34 34 33 31 32 34 34 33 33 33 33 33 35 36 35 37 40 40 40 41 41
29 30 31 32 33 33 33 33 32 32 33 38 42 44 45 48 51 48 46 47 51 53 52 53 52 53 55 58 62 67 72 73 73 73 74 74 74 76 77 76 76 77 75 73 70 67 63 59 58 58 58 55 53 52 49 47 45 44 41 39 38 38 36 33 33 35 33 31 32 32 34 35 33 32 31 31 34 36 36 36 38 40 42 43 44
30 30 31 32 33 34 35 35 35 36 38 40 43 44 44 47 51 53 55 57 59 60 57 55 54 54 55 57 60 63 66 70 73 74 76 79 80 81 82 81 81 83 83 82 79 78 76 71 66 64 64 60 55 51 47 44 42 41 41 41 40 38 36 33 34 38 36 34 34 34 35 35 32 31 31 31 33 35 35 35 36 39 42 42 43
34 34 35 35 35 36 36 35 36 37 40 41 45 48 47 46 49 53 59 66 70 69 65 60 58 59 61 61 63 66 68 70 70 70 73 77 80 82 83 84 85 85 86 87 87 85 83 79 73 67 66 62 55 50 47 43 39 38 40 43 42 40 37 35 35 39 38 37 37 37 37 34 32 33 34 33 34 35 36 36 37 41 46 44 41
40 39 39 39 40 40 40 39 38 39 40 40 44 49 50 48 48 50 55 65 73 74 74 71 69 69 70 70 70 73 76 77 76 73 72 72 73 76 79 83 87 87 86 87 89 88 85 82 75 67 65 63 56 53 49 44 40 39 41 43 43 43 42 38 35 37 39 37 37 36 35 35 35 36 36 35 35 36 37 39 40 45 49 47 44
43 42 41 42 42 42 43 43 43 45 45 43 42 46 49 50 49 48 50 57 66 72 76 78 78 77 76 76 76 76 78 81 83 81 77 74 72 72 73 76 80 83 82 81 84 86 84 80 74 69 67 62 56 55 51 45 44 43 44 46 47 47 46 42 39 40 40 37 37 37 35 36 38 37 37 38 37 36 38 41 44 49 52 50 47
44 43 43 43 44 44 44 45 45 46 46 44 42 44 48 50 50 50 50 53 59 67 72 76 79 80 79 79 78 77 78 81 85 86 84 82 79 76 74 74 76 79 79 77 78 83 84 80 77 73 68 61 57 55 51 48 48 49 49 50 51 50 48 46 43 42 42 40 39 39 37 37 38 37 37 39 40 40 40 43 49 53 55 53 50
50 49 47 46 46 45 44 43 42 42 42 40 40 43 47 49 50 49 48 50 55 63 68 71 74 77 79 80 80 80 79 79 83 87 88 87 85 83 82 80 79 80 81 81 80 83 84 83 79 75 69 64 60 56 54 52 54 55 54 53 53 52 50 50 48 44 44 44 41 40 40 39 39 38 37 37 39 41 43 45 49 55 57 56 53
54 50 46 42 41 41 41 41 39 39 38 36 38 43 50 53 53 51 49 48 48 53 59 64 68 72 74 74 75 78 79 78 79 83 86 87 87 85 84 84 84 83 84 85 85 83 82 80 78 76 73 70 65 61 60 60 61 61 58 56 56 55 54 53 51 48 46 46 44 42 42 40 40 39 38 39 40 43 47 49 50 54 57 58 56
52 47 41 39 39 39 40 40 36 33 32 33 37 43 49 53 55 54 53 52 49 48 50 54 58 62 66 68 67 71 76 76 75 78 80 83 85 83 81 83 86 88 88 89 88 87 83 79 77 76 76 74 72 70 71 72 72 69 65 62 60 58 56 55 53 51 48 47 46 44 44 43 43 43 44 47 47 46 50 53 53 55 58 59 59
52 49 44 42 41 38 36 34 30 29 29 33 40 45 47 48 49 49 49 50 50 48 47 49 51 53 58 64 65 65 68 71 73 75 74 75 79 80 78 79 82 86 90 91 92 92 90 86 82 80 78 77 76 75 77 82 82 78 73 68 66 64 60 57 56 54 51 49 47 45 47 46 45 46 50 54 54 50 52 55 54 56 59 61 62
51 45 38 36 35 32 31 32 32 32 35 41 47 51 50 48 48 49 49 50 51 52 51 52 55 57 57 59 61 62 62 63 67 72 73 73 75 75 74 74 76 78 83 88 92 94 94 92 90 87 84 83 83 81 82 87 89 86 81 74 70 69 66 62 58 55 53 50 47 46 48 49 47 48 51 55 56 54 53 54 56 58 62 63 65
38 31 29 30 30 29 31 36 41 44 49 56 61 60 57 54 54 55 55 56 59 60 59 56 60 66 66 62 58 57 58 59 61 65 69 70 70 70 68 68 68 68 72 80 86 92 95 95 94 93 91 90 90 91 90 92 93 92 89 82 77 73 69 65 60 56 54 51 49 47 47 48 48 49 52 54 55 55 54 55 58 61 64 66 65
28 27 30 33 33 34 37 44 52 58 65 73 74 71 67 65 64 65 65 66 67 67 65 61 60 63 65 64 59 55 54 56 60 62 64 61 59 60 62 63 62 60 61 67 76 85 91 95 97 96 95 93 93 95 94 94 94 92 90 86 81 77 72 68 64 59 55 54 52 50 50 50 48 49 52 53 55 58 58 58 60 62 65 66 63
27 30 35 38 39 43 52 58 61 68 76 81 80 78 75 73 74 76 76 76 74 73 71 68 65 63 62 62 59 55 52 53 54 57 60 58 52 52 55 58 59 58 57 57 62 71 78 85 94 98 98 97 94 95 96 96 95 92 90 87 83 81 77 74 71 63 58 57 54 52 54 53 50 50 53 53 55 60 63 64 64 64 66 67 64
30 33 39 44 47 55 66 67 66 74 84 83 79 79 78 80 83 85 85 85 85 83 80 76 73 70 68 66 63 59 56 54 52 51 54 56 54 52 53 54 56 59 59 57 55 58 63 69 78 89 97 100 99 97 96 96 97 94 91 88 85 83 82 81 80 71 62 60 57 55 57 58 55 53 53 53 54 59 65 67 66 67 68 68 66
35 39 45 52 57 66 74 72 72 82 89 82 78 79 82 86 89 90 90 90 91 91 87 84 80 77 75 74 71 68 64 61 57 52 52 54 54 52 53 55 58 60 61 61 57 54 54 56 63 72 80 89 95 99 99 98 98 97 93 90 88 87 86 85 86 78 67 63 59 57 60 62 59 56 55 53 53 56 62 67 69 69 68 68 67
42 46 54 63 69 75 78 78 81 88 90 83 81 83 85 89 91 93 94 93 94 94 91 89 86 83 81 79 77 75 72 68 63 56 52 51 51 51 51 53 55 56 56 57 57 56 54 53 56 60 63 69 77 86 94 98 99 99 97 94 91 89 87 86 87 83 74 67 63 58 60 64 62 59 57 55 53 55 59 66 70 70 68 69 69
51 60 71 77 79 79 80 84 90 93 91 86 86 87 87 90 92 94 95 94 95 93 91 90 87 84 82 80 80 78 74 71 67 61 56 54 53 53 53 53 53 53 52 53 54 56 56 53 53 56 57 58 61 67 77 88 95 98 99 98 95 90 87 85 84 83 79 73 67 61 60 64 65 62 60 57 56 57 62 67 68 70 72 74 75
60 75 85 86 85 81 80 88 94 95 91 89 90 91 90 91 92 93 95 95 95 93 91 89 87 85 83 82 82 79 75 72 69 65 60 58 57 57 56 56 55 54 54 53 51 52 53 49 48 51 51 51 54 57 64 73 83 91 96 99 98 93 90 86 83 82 81 77 72 65 62 65 67 66 63 61 60 62 66 67 66 71 78 82 82
68 82 89 89 87 84 84 90 93 91 89 90 93 95 93 92 91 92 94 96 97 96 92 90 88 87 85 84 82 80 76 73 70 67 64 62 61 60 59 58 56 54 54 52 50 49 47 44 43 46 47 45 44 50 57 63 71 79 87 94 98 97 93 90 86 82 81 81 76 70 66 67 71 70 66 64 63 64 67 69 67 72 82 86 85
73 83 88 87 88 89 90 91 89 87 87 89 93 96 94 91 91 92 94 95 97 97 93 92 91 90 89 87 85 82 79 76 74 72 69 69 69 68 65 64 61 58 56 55 53 49 47 45 43 42 45 43 39 40 48 55 61 68 76 84 92 97 98 94 89 84 83 83 80 73 68 70 76 74 70 69 68 66 69 74 74 75 83 87 84
77 83 86 86 89 92 92 90 87 86 88 90 92 93 91 89 90 92 92 93 95 94 92 91 92 93 91 90 87 85 83 82 80 79 78 77 78 78 75 73 70 67 64 62 59 56 52 49 45 41 43 47 45 43 45 50 55 59 65 74 84 93 99 98 93 89 86 84 82 76 68 71 78 77 74 76 76 73 73 77 79 81 85 86 82
79 83 85 86 89 93 92 89 89 90 91 92 92 92 91 90 90 89 89 90 92 92 90 89 90 93 93 92 91 90 89 88 86 84 84 84 83 83 82 78 74 70 67 63 60 59 56 51 46 42 44 47 50 50 50 52 56 58 59 66 76 86 95 100 98 94 90 86 84 78 69 71 79 79 74 75 79 80 78 78 82 85 88 87 84
81 84 86 88 91 92 91 91 93 95 95 95 94 93 92 92 91 89 87 87 88 90 90 88 90 93 95 95 94 94 94 94 92 88 86 86 86 85 83 81 77 72 68 64 62 61 58 52 47 45 46 47 49 52 54 55 58 59 59 62 71 79 88 97 101 97 94 89 86 81 71 68 76 78 73 73 80 84 82 80 85 87 89 92 89
85 87 90 93 94 93 93 94 95 95 96 98 97 95 93 92 90 89 87 87 88 91 91 92 93 93 93 92 92 94 95 96 95 91 86 84 86 87 84 82 79 75 72 69 67 62 57 53 51 50 51 50 50 52 55 57 59 60 60 61 67 74 81 91 99 99 96 93 89 85 75 66 69 75 73 72 79 86 84 82 88 91 92 94 90
87 89 93 95 94 94 96 95 94 94 96 97 95 93 93 93 94 95 93 91 89 87 86 87 90 92 91 90 91 91 92 92 92 89 85 82 83 86 86 83 80 77 75 72 67 59 54 52 52 54 54 54 53 53 55 58 59 60 61 61 64 69 73 83 94 98 97 95 90 87 79 70 70 74 74 75 81 88 86 83 89 93 92 94 90
89 90 93 95 94 95 97 97 97 97 98 97 95 94 95 94 96 99 98 94 89 85 84 84 86 88 88 89 89 88 87 86 84 83 84 83 82 84 86 86 84 79 74 70 63 55 52 53 54 57 59 61 61 58 55 56 57 58 59 58 61 67 71 77 88 96 98 95 91 89 82 74 72 73 76 80 85 90 89 84 86 90 90 90 87
90 92 93 95 95 95 96 97 98 99 99 99 99 99 99 97 96 96 97 95 92 89 88 86 84 85 85 84 83 82 83 84 84 83 85 86 85 85 87 87 85 79 73 67 60 55 54 57 59 61 65 69 68 64 59 59 61 62 62 60 59 66 73 77 83 93 99 96 93 93 86 76 72 72 78 86 88 90 91 88 87 89 88 84 80
88 89 91 94 95 94 94 97 99 100 100 101 101 100 98 96 94 93 94 96 95 92 90 88 86 85 85 82 79 78 81 84 86 87 88 88 88 88 88 88 86 81 74 67 60 56 57 60 63 67 72 77 78 76 74 73 72 71 70 68 65 66 73 79 83 90 98 98 95 94 90 81 72 70 80 91 91 88 91 93 91 87 81 77 74
82 83 85 89 91 92 92 96 100 101 101 101 100 97 96 95 92 92 95 96 95 93 89 89 88 88 87 85 83 83 84 85 88 90 89 90 92 91 89 90 88 81 73 67 60 57 58 63 70 77 83 86 85 86 88 89 86 82 77 74 70 69 71 75 81 91 98 100 97 96 95 87 76 72 81 90 91 89 91 94 90 81 75 75 73
80 82 84 85 88 91 93 95 98 100 100 99 97 95 95 95 94 94 95 95 93 91 89 89 90 90 88 86 85 85 85 87 90 92 90 91 95 93 91 92 89 80 72 67 60 57 62 71 80 88 92 90 88 90 95 97 96 92 86 78 72 73 72 70 78 93 101 100 98 98 98 92 84 80 82 87 89 89 91 93 88 79 77 76 72
83 84 86 87 89 91 94 97 98 99 97 95 96 96 95 94 94 94 94 94 93 91 91 89 89 89 87 86 86 86 86 88 91 92 91 94 96 93 93 94 87 76 68 63 61 65 72 79 85 89 91 90 89 92 97 100 100 98 93 87 78 76 77 75 79 91 99 101 99 98 98 96 92 86 81 83 87 89 92 92 85 79 79 77 74
85 86 88 91 93 93 95 97 98 97 93 91 93 93 91 90 91 92 95 97 95 92 90 89 89 89 89 90 89 88 88 90 93 94 94 95 95 94 95 92 82 72 65 61 64 72 78 81 83 85 87 86 86 91 97 101 102 100 96 94 86 80 81 82 82 87 95 100 100 99 98 98 96 89 80 78 83 88 92 91 84 79 80 79 76
87 90 91 93 95 96 97 96 95 94 93 92 92 89 85 85 89 92 96 96 94 91 91 90 90 90 90 90 89 88 89 92 97 98 95 93 93 95 94 86 73 67 65 64 68 73 77 80 82 82 83 83 83 89 95 99 102 101 98 96 90 84 86 89 90 94 98 100 100 100 99 99 98 92 82 78 82 88 91 89 85 83 81 80 78
92 96 97 98 98 98 98 96 94 93 94 95 94 89 85 86 88 91 95 95 93 93 94 94 93 90 89 90 89 89 93 98 99 96 93 94 97 96 87 75 67 67 69 70 72 74 75 79 82 82 81 80 80 86 92 96 101 103 100 98 94 92 94 97 98 100 101 100 100 101 100 99 99 96 88 84 85 87 87 86 87 86 83 80 79
95 96 97 99 99 98 98 95 93 95 97 95 93 90 89 88 88 90 94 94 94 95 97 97 96 93 91 92 93 95 98 99 98 96 97 100 98 89 77 70 69 69 70 73 76 77 77 80 83 84 81 78 78 83 88 93 99 102 101 99 99 99 100 101 101 100 100 100 100 100 100 99 99 98 94 88 86 85 84 84 88 89 86 82 80
96 98 98 98 96 94 95 95 95 97 97 94 93 93 93 91 88 89 92 93 95 97 98 97 97 96 95 96 98 99 98 98 98 100 100 97 88 78 72 72 72 71 73 78 82 82 78 76 77 80 81 78 77 80 84 90 97 102 101 99 97 99 101 101 100 100 100 100 100 100 100 99 98 99 97 93 88 85 85 86 90 91 87 83 80
94 99 98 96 94 92 93 95 96 96 95 95 95 94 93 92 90 88 89 93 97 98 97 97 97 96 97 99 100 99 98 99 99 96 91 84 78 75 73 73 72 73 78 83 86 85 82 78 76 77 77 73 71 74 79 85 95 101 99 94 93 97 101 100 99 100 100 100 101 100 100 99 98 100 100 96 90 87 88 91 93 93 90 86 82
95 97 94 90 92 95 96 96 95 95 97 98 96 94 93 93 91 88 89 95 99 98 97 97 96 96 98 101 100 100 101 98 89 81 78 77 75 73 72 71 72 75 81 85 86 87 87 84 81 79 75 69 67 69 75 83 94 101 97 92 93 98 100 100 100 101 101 100 98 98 99 99 99 100 100 95 91 91 95 96 95 95 92 88 82
98 96 93 91 92 95 96 95 94 95 96 95 95 96 96 94 92 90 91 96 99 97 96 95 95 96 99 100 102 101 96 85 76 74 77 77 72 69 70 73 75 80 85 86 84 85 86 85 82 79 76 72 70 74 80 88 96 100 98 94 96 99 101 101 101 100 100 98 95 94 96 98 99 100 100 98 96 98 99 98 96 94 90 85 81
96 93 94 94 93 93 93 93 93 94 93 92 93 96 97 96 93 91 92 97 99 96 92 93 95 96 98 101 102 94 81 72 71 75 77 74 70 71 76 79 81 85 88 87 86 89 91 89 84 80 76 76 80 85 91 96 99 100 99 96 97 100 101 101 101 101 100 99 96 94 96 99 100 100 100 99 98 98 98 96 94 90 85 82 78
95 94 94 94 93 92 92 91 92 92 91 91 92 94 97 97 94 92 95 100 99 92 90 94 95 94 97 101 94 79 70 71 75 77 78 77 76 79 82 84 85 87 87 87 90 95 95 90 86 82 78 82 90 96 98 99 100 100 99 96 95 96 98 98 99 99 99 100 99 99 98 97 97 98 99 99 97 96 95 93 90 84 80 76 71
96 95 95 96 94 92 91 91 93 93 93 93 93 95 98 97 93 93 97 101 96 90 91 95 94 94 98 95 81 69 69 74 78 80 83 83 84 87 89 88 88 88 89 91 95 98 99 97 95 91 88 92 98 100 100 100 100 100 100 98 97 97 97 97 95 93 93 94 95 95 96 96 97 99 99 97 93 92 91 88 83 78 73 69 65
95 96 99 99 96 94 94 95 94 94 95 95 95 97 99 96 94 95 98 99 94 90 93 96 94 95 94 83 69 67 71 74 78 83 86 86 89 93 94 94 94 94 95 97 98 99 100 100 99 98 98 99 100 100 100 100 100 100 100 99 99 99 99 99 97 94 92 91 91 94 96 98 97 95 92 88 86 86 86 83 79 76 73 70 68
97 100 103 101 98 97 97 98 96 94 95 95 96 99 100 97 95 97 98 97 93 92 94 95 94 94 86 72 65 68 71 75 80 84 86 89 94 97 97 98 99 99 99 100 100 99 99 99 98 98 100 100 100 100 100 100 100 100 100 99 100 100 99 100 100 99 98 97 96 97 97 95 92 89 87 85 84 85 85 82 81 81 78 73 70
99 102 103 101 100 99 99 101 100 97 96 96 97 100 101 98 96 98 99 97 95 95 94 95 95 90 77 67 67 71 73 79 83 85 88 93 97 99 100 101 101 100 100 100 100 99 100 100 99 98 99 99 100 101 100 100 100 100 99 99 100 100 99 100 99 99 100 100 99 98 95 92 92 91 90 89 88 86 85 85 86 85 80 73 71
98 101 101 100 100 99 100 102 102 100 99 98 98 100 101 98 97 99 99 98 97 95 94 95 96 86 71 66 72 75 78 83 84 86 93 96 95 95 98 99 100 100 100 99 98 98 100 100 99 99 99 99 100 100 100 100 100 99 98 99 100 99 99 100 100 100 100 100 99 98 96 94 95 95 94 93 92 89 88 89 90 86 78 74 73
98 99 99 99 100 100 102 103 102 102 100 97 98 101 100 98 97 98 99 98 98 96 94 96 96 83 67 66 74 78 81 83 83 87 94 94 91 93 94 95 98 100 99 96 93 93 97 100 100 100 99 99 99 99 99 98 99 100 100 100 100 99 99 100 100 99 98 97 98 98 99 99 98 96 94 93 90 88 88 90 87 81 76 74 73
97 96 97 100 101 101 102 102 102 101 99 97 99 101 99 97 97 98 98 98 99 97 95 96 96 82 65 65 73 77 81 84 84 86 89 88 86 89 92 93 96 98 96 93 89 89 92 97 99 99 99 98 96 97 97 97 98 99 100 100 100 99 99 99 99 98 99 98 97 98 99 99 96 92 89 87 85 85 86 84 79 74 73 73 70